Weather History for Sussex, NJ

Change the Weather History Date:

Tuesday, January 22, 2013

  Actual Average Record
Temperature  
Mean Temperature 16 °F -  
Max Temperature 21 °F 31 °F 63 °F (1959)
Min Temperature 9 °F 11 °F -25 °F (1961)
Degree Days  
Heating Degree Days 50    
Moisture  
Dew Point 2 °F    
Average Humidity 55    
Maximum Humidity 79    
Minimum Humidity 33    
Precipitation  
Precipitation 0.00 in - - ()
Sea Level Pressure  
Sea Level Pressure 30.01 in    
Wind  
Wind Speed 6 mph (WNW)    
Max Wind Speed 13 mph    
Max Gust Speed 23 mph    
Visibility 7 miles    
Events Snow    
Averages and records for this station are not official NWS values.
T = Trace of Precipitation, MM = Missing Value Source: NWS Daily Summary

Daily Weather History Graph

Daily Weather History Graph

Search for Another Location

Airport:

Trip Planner

Search our weather history database for the weather conditions in past years. The results will help you decide how hot, cold, wet, or windy it might be!

Date:

Astronomy

Jan. 22, 2013 Rise Set
Actual Time 7:17 AM EST 5:03 PM EST
Civil Twilight 6:47 AM EST 5:32 PM EST
Nautical Twilight 6:14 AM EST 6:06 PM EST
Astronomical Twilight 5:41 AM EST 6:39 PM EST
Moon 1:23 PM EST (1/22) 3:37 AM EST (1/22)
Length of Visible Light 10h 45m
Length of Day
9h 45m
Waxing Gibbous, 82% of the Moon is Illuminated
Jan 22
Waxing Gibbous
Jan 26
Full
Feb 3
Last Quarter
Feb 10
New
Feb 17
First Quarter

Hourly Weather History & Observations

Time (EST) Temp. Windchill Dew Point Humidity Pressure Visibility Wind Dir Wind Speed Gust Speed Precip Events Conditions
12:53 AM 21.0 °F 12.4 °F 6.1 °F 53% 29.83 in 10.0 mi West 6.9 mph - N/A   Clear
1:53 AM 21.0 °F 12.4 °F 3.9 °F 48% 29.85 in 10.0 mi Variable 6.9 mph - N/A   Clear
2:53 AM 19.9 °F - 3.9 °F 50% 29.86 in 10.0 mi Calm Calm - N/A   Clear
3:53 AM 19.0 °F 10.0 °F 3.9 °F 52% 29.88 in 10.0 mi Variable 6.9 mph - N/A   Clear
4:53 AM 18.0 °F 9.8 °F 3.9 °F 54% 29.91 in 10.0 mi Variable 5.8 mph - N/A   Overcast
5:08 AM 17.6 °F 7.3 °F 8.6 °F 68% 29.90 in 2.5 mi NW 8.1 mph 21.9 mph 0.00 in Snow Light Snow
5:23 AM 17.6 °F 10.7 °F 8.6 °F 68% 29.91 in 6.0 mi Variable 4.6 mph - 0.00 in   Haze
5:37 AM 17.6 °F 7.3 °F 6.8 °F 63% 29.92 in 10.0 mi NW 8.1 mph - 0.00 in   Mostly Cloudy
5:53 AM 17.1 °F 7.6 °F 6.1 °F 62% 29.94 in 10.0 mi Variable 6.9 mph - 0.00 in   Partly Cloudy
6:53 AM 16.0 °F 7.4 °F 1.9 °F 54% 29.96 in 10.0 mi Variable 5.8 mph - N/A   Clear
7:53 AM 16.0 °F 7.4 °F 3.0 °F 57% 29.99 in 10.0 mi NW 5.8 mph - N/A   Clear
8:51 AM 15.8 °F 7.2 °F 5.0 °F 62% 29.99 in 2.5 mi WNW 5.8 mph - 0.00 in Snow Light Snow
8:53 AM 16.0 °F 10.4 °F 5.0 °F 62% 30.01 in 2.5 mi Variable 3.5 mph - 0.00 in Snow Light Snow
8:56 AM 15.8 °F 5.1 °F 5.0 °F 62% 29.99 in 3.0 mi WNW 8.1 mph - 0.00 in Snow Light Snow
9:07 AM 15.8 °F 5.1 °F 5.0 °F 62% 30.00 in 2.5 mi NW 8.1 mph - 0.00 in Snow Light Snow
9:12 AM 15.8 °F 8.6 °F 6.8 °F 68% 30.00 in 1.2 mi Variable 4.6 mph - 0.00 in Snow Light Snow
9:22 AM 15.8 °F 7.2 °F 6.8 °F 68% 30.00 in 1.8 mi West 5.8 mph - 0.00 in Snow Light Snow
9:27 AM 15.8 °F 2.7 °F 6.8 °F 68% 30.01 in 0.8 mi WNW 11.5 mph - 0.00 in Snow Light Snow
9:38 AM 14.0 °F 5.1 °F 8.6 °F 79% 30.01 in 0.2 mi Variable 5.8 mph 18.4 mph 0.00 in Snow Heavy Snow
9:49 AM 15.8 °F 8.6 °F 8.6 °F 73% 30.01 in 1.0 mi Variable 4.6 mph - 0.00 in Snow Light Snow
9:51 AM 15.8 °F 8.6 °F 8.6 °F 73% 30.01 in 2.0 mi Variable 4.6 mph - 0.00 in Snow Light Snow
9:53 AM 16.0 °F 8.8 °F 8.1 °F 71% 30.03 in 4.0 mi NW 4.6 mph - 0.00 in Snow Light Snow
10:15 AM 15.8 °F 8.6 °F 6.8 °F 68% 30.02 in 2.0 mi NW 4.6 mph - 0.00 in Snow Light Snow
10:24 AM 15.8 °F 8.6 °F 6.8 °F 68% 30.02 in 7.0 mi Variable 4.6 mph - 0.00 in   Mostly Cloudy
10:37 AM 17.6 °F 5.7 °F 1.4 °F 49% 30.02 in 10.0 mi WNW 10.4 mph 16.1 mph 0.00 in   Mostly Cloudy
10:53 AM 16.0 °F 6.3 °F -0.9 °F 47% 30.04 in 10.0 mi Variable 6.9 mph 18.4 mph 0.00 in   Overcast
11:53 AM 18.0 °F 8.7 °F -4.0 °F 38% 30.03 in 10.0 mi Variable 6.9 mph 20.7 mph N/A   Mostly Cloudy
12:53 PM 18.0 °F 5.4 °F -6.0 °F 35% 30.01 in 10.0 mi West 11.5 mph 20.7 mph N/A   Mostly Cloudy
1:53 PM 18.0 °F 4.8 °F -7.1 °F 33% 30.01 in 10.0 mi WNW 12.7 mph 23.0 mph N/A   Scattered Clouds
2:53 PM 17.1 °F 5.0 °F -8.0 °F 33% 30.04 in 10.0 mi West 10.4 mph 23.0 mph N/A   Clear
3:53 PM 16.0 °F 4.4 °F -2.9 °F 43% 30.06 in 10.0 mi WSW 9.2 mph 18.4 mph N/A   Partly Cloudy
4:53 PM 15.1 °F 4.2 °F -6.0 °F 39% 30.08 in 10.0 mi West 8.1 mph - N/A   Scattered Clouds
5:53 PM 14.0 °F - -7.1 °F 39% 30.11 in 10.0 mi Calm Calm - N/A   Clear
6:53 PM 14.0 °F 5.1 °F -4.0 °F 45% 30.13 in 10.0 mi Variable 5.8 mph - N/A   Partly Cloudy
7:53 PM 12.0 °F - -4.0 °F 49% 30.16 in 10.0 mi Calm Calm - N/A   Partly Cloudy
8:53 PM 12.0 °F -1.3 °F -9.9 °F 37% 30.17 in 10.0 mi West 10.4 mph - N/A   Clear
9:53 PM 10.9 °F 1.4 °F -9.9 °F 39% 30.18 in 10.0 mi Variable 5.8 mph - N/A   Clear
10:53 PM 10.0 °F -0.9 °F -9.0 °F 42% 30.19 in 10.0 mi SW 6.9 mph - N/A   Clear
11:53 PM 9.0 °F 2.4 °F -8.0 °F 46% 30.17 in 10.0 mi Variable 3.5 mph - N/A   Clear